x

8461490 - New London, Ct (nlnc3) Weather Station

5:30 - Sun 28th Dec 2014 All times are EST. -5 hours from GMT.

  • Wind
    3mph, 6mph gusts
  • Sea Temp 46°f
  • Air Temp 48°f
  • Sea Pressure 1012.1mb
  • 8461490 - New London, Ct
  • 8461490 - New London, Ct

More Historic Weather Station data

Upgrade to MSW Pro to gain access to the past 30 days of data for over 8000 Wavebouys and Weather Stations around the globe.

Join Pro

Comparision Forecast

View Surf forecast
   
dim. 12/28 5:30 3 6 mph 1012.1mb 46f 48f
5:24 2 6 mph 1012mb 46f 48f
5:18 3 5 mph 1011.9mb 46f 48f
5:12 1 2 mph 1011.7mb 46f 48f
5:06 2 6 mph 1011.6mb 46f 48f
5:00 2 6 mph 1011.6mb 46f 48f
4:54 3 6 mph 1011.3mb 46f 49f
4:48 2 3 mph 1011.2mb 46f 49f
4:42 2 5 mph 1011.3mb 46f 49f
4:36 3 7 mph 1011.2mb 46f 49f
4:30 5 7 mph 1011.2mb 46f 49f
4:24 2 5 mph 1011.2mb 46f 49f
4:18 3 5 mph 1011mb 46f 49f
4:12 3 6 mph 1010.6mb 46f 49f
4:06 2 3 mph 1010.6mb 46f 49f
4:00 1 6 mph 1010.7mb 46f 49f
3:54 2 5 mph 1010.9mb 46f 50f
3:48 3 6 mph 1010.6mb 46f 50f
3:42 3 6 mph 1010.6mb 46f 50f
3:36 3 5 mph 1010.6mb 46f 50f
3:30 3 7 mph 1010.2mb 46f 50f
3:24 3 6 mph 1010.3mb 46f 50f
3:18  -  6 mph 1010mb 46f 50f
3:12 2 9 mph 1009.8mb 46f 50f
3:06 5 8 mph 1010.3mb 46f 50f
3:00 2 6 mph 1010.1mb 46f 50f
2:54 2 6 mph 1010.1mb 46f 50f
2:48 2 6 mph 1010.2mb 46f 50f
2:42 2 6 mph 1010mb 46f 50f
2:36 5 8 mph 1010.1mb 46f 50f
2:30 6 8 mph 1010.2mb 46f 50f
2:24 6 7 mph 1010mb 46f 50f
2:18 5 7 mph 1009.7mb 46f 49f
2:12 5 6 mph 1010.1mb 46f 49f
1:54 5 7 mph 1009.5mb 46f 49f
1:48 6 9 mph 1009.7mb 46f 49f
1:42 6 11 mph 1009.9mb 46f 48f
1:36 6 9 mph 1009.8mb 46f 48f
1:30 5 10 mph 1009.9mb 46f 48f
1:24 5 10 mph 1009.9mb 46f 48f
1:18 6 9 mph 1009.9mb 46f 48f
1:12 6 9 mph 1009.4mb 46f 48f
1:06 2 7 mph 1008.8mb 46f 48f
1:00 6 10 mph 1009.1mb 46f 47f
12:54 3 11 mph 1009.8mb 46f 48f
12:48 6 14 mph 1009.8mb 46f 47f
12:42 8 15 mph 1009.9mb 46f 47f
12:36 8 16 mph 1009.8mb 46f 47f
12:30 13 16 mph 1009.5mb 46f 47f
12:24 8 11 mph 1009.3mb 46f 47f
12:18 5 11 mph 1009.3mb 46f 47f
12:12 5 8 mph 1009.3mb 46f 47f
12:06 5 9 mph 1009.1mb 46f 47f
12:00 6 10 mph 1009.2mb 46f 46f
11:54 5 9 mph 1009.1mb 46f 46f
11:48 6 9 mph 1009.1mb 46f 46f
11:42 6 10 mph 1009mb 46f 46f
11:36 6 9 mph 1009.2mb 46f 46f
11:30 7 10 mph 1009.6mb 46f 46f
11:24 6 10 mph 1010.1mb 46f 45f
11:18 7 9 mph 1009.9mb 46f 45f
11:12 5 9 mph 1010mb 46f 45f
11:06 7 10 mph 1010.1mb 46f 45f
11:00 6 11 mph 1010.1mb 46f 45f
10:54 7 13 mph 1010.3mb 46f 45f
10:48 6 11 mph 1010.5mb 46f 45f
10:42 6 10 mph 1010.6mb 46f 45f
10:36 5 13 mph 1010.6mb 46f 45f
10:30 3 7 mph 1010.8mb 46f 45f
10:24 7 10 mph 1010.7mb 46f 45f
10:18 9 11 mph 1010.5mb 46f 45f
10:12 5 11 mph 1010.4mb 46f 45f
10:06 8 11 mph 1010.3mb 46f 45f
10:00 7 10 mph 1010.3mb 46f 45f
9:54 6 10 mph 1010.7mb 46f 45f
9:48 8 11 mph 1010.9mb 46f 45f
9:42 7 10 mph 1010.8mb 46f 45f
9:36 6 8 mph 1010.8mb 46f 45f
9:30 5 9 mph 1011mb 45f 45f
9:24 7 9 mph 1011.1mb 45f 45f
9:18 3 8 mph 1010.9mb 45f 45f
9:12 3 7 mph 1011mb 45f 45f
9:06 5 9 mph 1011.2mb 45f 46f
9:00 6 9 mph 1011.2mb 45f 46f
8:54 6 10 mph 1011.3mb 45f 46f
8:48 6 10 mph 1011.4mb 46f 46f
8:42 3 8 mph 1011mb 45f 46f
8:36 5 8 mph 1011.3mb 46f 46f
8:30 6 8 mph 1011.3mb 45f 46f
8:24 6 8 mph 1011.2mb 46f 46f
8:18 3 7 mph 1011.3mb 46f 46f
8:12 3 8 mph 1011.3mb 46f 46f
8:06 6 8 mph 1011.3mb 46f 46f
8:00 5 7 mph 1011.4mb 46f 47f
7:54 5 7 mph 1011.4mb 45f 47f
7:48 3 7 mph 1011.3mb 46f 47f
7:42 5 13 mph 1011.3mb 46f 47f
7:36 9 13 mph 1011.8mb 46f 47f
7:30 7 9 mph 1011.9mb 46f 47f
7:24 6 9 mph 1011.7mb 46f 47f
7:18 6 9 mph 1011.4mb 46f 46f
7:12 6 8 mph 1011.6mb 46f 46f
7:06 6 8 mph 1011.6mb 46f 46f
7:00 5 7 mph 1011.7mb 46f 46f
6:54 3 8 mph 1011.8mb 46f 47f
6:48 5 7 mph 1011.8mb 46f 47f
6:42 3 8 mph 1011.6mb 46f 46f
6:36 5 10 mph 1011.7mb 46f 46f
6:30 5 7 mph 1011.6mb 46f 46f
6:24 7 11 mph 1011.6mb 46f 46f
6:18 6 8 mph 1011.5mb 46f 46f
6:12 6 9 mph 1011.5mb 46f 46f
6:06 3 6 mph 1011.7mb 46f 46f
6:00 2 6 mph 1011.7mb 46f 46f
5:54 5 6 mph 1011.7mb 46f 46f
5:48 3 6 mph 1011.6mb 46f 46f
5:42 3 7 mph 1011.4mb 46f 46f
5:36 5 7 mph 1011.5mb 46f 46f
5:30 5 7 mph 1011.5mb 46f 46f
5:24 5 7 mph 1011.3mb 46f 46f
5:18 5 7 mph 1011.4mb 46f 46f
5:12 5 8 mph 1011.4mb 46f 46f
5:06 6 9 mph 1011.5mb 46f 46f
5:00 7 9 mph 1011.5mb 46f 46f
4:54 6 10 mph 1011.6mb 46f 46f
4:48 8 11 mph 1012.1mb 46f 46f
4:42 6 10 mph 1012.1mb 46f 46f
4:36 8 14 mph 1012.2mb 46f 46f
4:30 7 13 mph 1012.2mb 46f 46f
4:24 8 13 mph 1012.3mb 46f 46f
4:18 9 14 mph 1012.5mb 46f 46f
4:12 8 13 mph 1012.5mb 46f 46f
4:06 6 10 mph 1012.2mb 46f 46f
4:00 6 10 mph 1012.6mb 46f 46f
3:54 6 9 mph 1012.4mb 46f 46f
3:48 6 11 mph 1012.5mb 46f 46f
3:42 6 13 mph 1012.7mb 46f 46f
3:36 7 11 mph 1012.9mb 46f 45f
3:30 6 9 mph 1012.9mb 46f 45f
3:24 7 9 mph 1013.1mb 46f 45f
3:18 6 10 mph 1013.2mb 46f 45f
3:12 5 8 mph 1013.4mb 46f 45f
3:06 7 11 mph 1013.3mb 46f 45f
3:00 6 11 mph 1013.5mb 46f 45f
2:54 6 10 mph 1013.6mb 46f 44f
2:48 6 13 mph 1013.6mb 46f 44f
2:42 8 10 mph 1013.7mb 46f 44f
2:36 8 10 mph 1013.8mb 46f 44f
2:30 7 10 mph 1013.9mb 46f 44f
2:24 8 9 mph 1014.2mb 46f 44f
2:18 7 9 mph 1014.4mb 46f 44f
2:12 7 8 mph 1014.4mb 46f 44f
2:06 6 8 mph 1014.6mb 46f 44f
2:00 6 7 mph 1014.7mb 46f 44f
1:54 5 6 mph 1015mb 46f 43f
1:48 3 6 mph 1015.1mb 46f 43f
1:42 3 6 mph 1015.4mb 46f 43f
1:36 3 5 mph 1015.4mb 46f 43f
1:30 3 6 mph 1015.6mb 46f 43f
1:24 2 6 mph 1016mb 46f 42f
1:18 3 6 mph 1016.1mb 46f 42f
1:12 2 5 mph 1016.1mb 46f 42f
1:06  -  mph 1016.2mb 46f 41f
1:00  -  mph 1016.1mb 46f 41f
12:54  -  1 mph 1016.2mb 46f 41f
12:48 2 3 mph 1016.3mb 46f 41f
12:42  -  1 mph 1016.4mb 46f 40f
12:36  -  2 mph 1016.7mb 46f 40f
12:30 2 5 mph 1017mb 46f 40f
12:24 2
mph
1017.2mb 46f 40f
12:18 2 5 mph 1017.2mb 46f 40f
12:12 2 3 mph 1017.3mb 46f 40f
12:06 2
mph
1017.4mb 46f 39f
12:00  -  mph 1017.4mb 46f 39f
sam. 12/27 11:54  -  1 mph 1017.6mb 46f 39f
11:48  -  mph - - 39f
11:42  -  mph - - 38f
11:36  -  mph - - 39f
11:30  -  mph 1018.5mb 46f 38f
11:24  -  mph 1018.5mb 46f 39f
11:18  -  1 mph 1018.4mb 46f 39f
11:12  -  mph 1018.4mb 46f 39f
11:06  -  mph 1018.6mb 46f 39f
11:00  -  1 mph 1018.6mb 46f 39f
10:54 1 2 mph 1018.6mb 45f 39f
10:48 1 2 mph 1018.7mb 45f 39f
10:42  -  mph 1018.8mb 45f 39f
10:36  -  mph 1018.9mb 45f 39f
10:30  -  mph 1019mb 45f 39f
10:24  -  mph 1019.1mb 45f 39f
10:18  -  mph 1019.3mb 45f 39f
10:12  -  mph 1019.3mb 45f 40f
10:06  -  mph 1019.4mb 45f 40f
10:00  -  mph 1019.5mb 45f 40f
9:54  -  mph 1019.5mb 45f 40f
9:48  -  mph 1019.5mb 45f 40f
9:42  -  mph 1019.5mb 45f 40f
9:36  -  2 mph 1019.4mb 45f 40f
9:30 1 2 mph 1019.5mb 45f 40f
9:24  -  mph 1019.6mb 45f 40f
9:18  -  2 mph 1019.8mb 45f 41f
9:12 1 3 mph 1019.7mb 45f 41f
9:06 3 5 mph 1019.7mb 45f 41f
9:00 1 2 mph 1019.7mb 45f 41f
8:54 1 3 mph 1019.8mb 45f 41f
8:48  -  3 mph 1019.9mb 45f 42f
8:42 1 3 mph 1020mb 44f 42f
8:36 2 5 mph 1020mb 44f 42f
8:30 3 5 mph 1020.1mb 44f 42f
8:24 3 6 mph 1020.2mb 44f 42f
8:18 3 5 mph 1020.3mb 44f 42f
8:12 2 5 mph 1020.3mb 44f 42f
8:06 3 6 mph 1020.2mb 44f 42f
8:00 3 6 mph 1020.3mb 44f 42f
7:54 2 3 mph 1020.5mb 44f 42f
7:48 2 5 mph 1020.5mb 44f 42f
7:42 2 5 mph 1020.6mb 45f 42f
7:36 1 2 mph 1020.6mb 45f 43f
7:30 2 5 mph 1020.5mb 45f 43f
7:24  -  2 mph 1020.2mb 45f 42f
7:18 2
mph
1020.4mb 45f 42f
7:12  -  mph 1020.2mb 45f 42f
7:06  -  1 mph 1020.2mb 45f 42f
7:00  -  1 mph 1020.3mb 45f 42f
6:54  -  mph 1020.4mb 45f 42f
6:48  -  2 mph 1020.5mb 45f 42f
6:42  -  2 mph 1020.5mb 45f 43f
6:36 1 2 mph 1020.7mb 46f 43f
6:30 1 2 mph 1020.6mb 46f 44f
6:24  -  2 mph 1020.6mb 46f 44f
6:18 2 3 mph 1020.5mb 46f 44f
6:12 2 3 mph 1020.6mb 46f 44f
6:06 2 5 mph 1020.8mb 46f 44f
6:00 3 6 mph 1020.9mb 46f 44f
5:54 3 5 mph 1020.9mb 46f 44f
5:48 2 6 mph 1020.9mb 46f 44f
5:42 3 6 mph 1020.8mb 46f 44f
5:36 3 5 mph 1020.9mb 46f 44f
5:30 3 7 mph 1020.8mb 46f 45f
5:24 5 6 mph 1020.9mb 46f 45f
5:18 5 6 mph 1021mb 46f 45f
5:12 3 7 mph 1021mb 46f 45f
5:06 5 7 mph 1021mb 46f 45f
5:00 5 9 mph 1021.1mb 46f 45f
4:54 6 8 mph 1021.1mb 46f 45f
4:48 3 7 mph 1021.1mb 46f 46f
4:42 3 7 mph 1020.9mb 46f 46f
4:36 6 9 mph 1020.7mb 46f 46f
4:30 6 9 mph 1020.6mb 46f 46f
4:24 7 9 mph 1020.6mb 46f 47f
4:18 3 7 mph 1020.5mb 46f 47f
4:12 3 8 mph 1020.5mb 46f 47f
4:06 6 8 mph 1020.6mb 46f 47f
4:00 3 6 mph 1020.5mb 46f 47f
3:54 3 6 mph 1020.5mb 46f 48f
3:48 6 8 mph 1020.5mb 46f 48f
3:42 5 7 mph 1020.7mb 46f 48f
3:36 7 8 mph 1020.6mb 46f 48f
3:30 5 9 mph 1020.8mb 46f 48f
3:24 9 13 mph 1020.8mb 46f 48f
3:18 7 8 mph 1020.8mb 46f 49f
3:12 7 11 mph 1020.8mb 46f 49f
3:06 7 11 mph 1020.7mb 46f 49f
3:00 7 10 mph 1020.8mb 46f 49f
2:54 6 9 mph 1020.9mb 46f 49f
2:48 8 14 mph 1020.9mb 46f 49f
2:42 10 13 mph 1020.9mb 46f 49f
2:36 9 11 mph 1021mb 46f 50f
2:30 7 10 mph 1020.8mb 46f 50f
2:24 7 10 mph 1020.7mb 46f 51f
2:18 9 11 mph 1020.7mb 46f 51f
2:12 8 11 mph 1020.8mb 46f 51f
2:06 9 11 mph 1020.6mb 46f 51f
2:00 8 11 mph 1020.6mb 46f 51f
1:54 7 10 mph 1020.6mb 46f 51f
1:48 7 10 mph 1020.6mb 46f 52f
1:42 8 11 mph 1020.7mb 46f 52f
1:36 7 8 mph 1020.7mb 46f 53f
1:30 6 9 mph 1020.7mb 46f 52f
1:24 8 10 mph 1020.7mb 46f 52f
1:18 8 9 mph 1020.7mb 46f 53f
1:12 6 8 mph 1020.8mb 46f 52f
1:06 3 6 mph 1021mb 46f 52f
1:00 3 6 mph 1021mb 46f 54f
12:54 2 7 mph 1021.1mb 46f 54f
12:48 3 8 mph 1021.2mb 46f 54f
12:42 5 7 mph 1021.3mb 46f 53f
12:36 2 5 mph 1021.2mb 46f 54f
12:30 2 5 mph 1021.3mb 46f 53f
12:24 2 8 mph 1021.7mb 46f 53f
12:18 3 6 mph 1021.8mb 46f 53f
12:12 6 9 mph 1021.9mb 46f 52f
12:06 5 7 mph 1022mb 46f 52f
12:00 3 8 mph 1022mb 46f 52f
11:54 5 7 mph 1022.1mb 46f 51f
11:48  -  mph - - 52f
11:42  -  mph - - 51f
11:36  -  mph - - 51f
11:30 2 5 mph 1022.4mb 46f 50f
11:24 2 5 mph 1022.4mb 46f 48f
11:18 2 5 mph 1022.5mb 46f 48f
11:12 1 3 mph 1022.5mb 46f 48f
11:06 3
mph
1022.5mb 45f 49f
11:00 3
mph
1022.7mb 46f 49f
10:54 3
mph
1022.8mb 46f 49f
10:48 3
mph
1022.9mb 46f 48f
10:42  -  mph 1023mb 46f 47f
10:36  -  mph 1023.2mb 46f 47f
10:30  -  mph 1023.4mb 46f 46f
10:24  -  mph 1023.4mb 46f 43f
10:18  -  mph 1023.5mb 46f 42f
10:12  -  mph 1023.7mb 46f 41f
10:06  -  mph 1023.8mb 46f 42f
10:00  -  mph 1023.8mb 46f 42f
9:54  -  mph 1023.7mb 46f 41f
9:48  -  1 mph 1023.8mb 46f 40f
9:42  -  mph 1023.9mb 46f 39f
9:36  -  mph 1023.9mb 46f 39f
9:30  -  mph 1024mb 46f 39f
9:24  -  1 mph 1023.9mb 46f 38f
9:18  -  mph 1023.9mb 46f 38f
9:12  -  mph 1023.8mb 46f 36f
9:06  -  2 mph 1023.7mb 46f 36f
9:00 1 2 mph 1023.7mb 46f 36f
8:54  -  1 mph 1023.7mb 45f 35f
8:48  -  2 mph 1023.5mb 45f 35f
8:42  -  3 mph 1023.5mb 44f 35f
8:36 1 5 mph 1023.6mb 44f 35f
8:30 3 5 mph 1023.5mb 44f 35f
8:24 2 3 mph 1023.5mb 44f 35f
8:18 2
mph
1023.5mb - -
8:12  -  mph 1023.4mb - -
8:06  -  2 mph 1023.5mb - -
8:00  -  2 mph 1023.4mb - -
7:54 1 2 mph 1023.4mb - -
7:48 2 3 mph 1023.5mb - -
7:42 1 2 mph 1023.4mb - -
7:36 1 3 mph 1023.3mb - -
7:30 2 3 mph 1023.2mb - -
7:24 2 3 mph 1023.1mb - -
7:18 1 3 mph 1023.1mb - -
7:12 1 3 mph 1023mb - -
7:06 3 5 mph 1022.9mb - -
7:00 2 5 mph 1022.9mb - -
6:54 2 5 mph 1022.8mb - -
6:48 3 5 mph 1022.8mb - -
6:42 2 3 mph 1022.8mb - -
6:36 2 3 mph 1022.7mb - -
6:30 2 5 mph 1022.6mb - -
6:24 3 6 mph 1022.5mb - -
6:18 3 5 mph 1022.4mb - -
6:12 2 6 mph 1022.1mb - -
6:06 5
mph
1022mb - -
6:00 3 5 mph 1021.9mb - -
5:54 3 5 mph 1021.7mb - -
5:48 2 3 mph 1021.7mb - -
5:42 1 3 mph 1021.7mb - -
5:36 2 3 mph 1021.7mb - -
5:30  -  2 mph 1021.6mb - -
5:24 1 2 mph 1021.5mb - -
5:18  -  2 mph 1021.3mb - -
5:12 1 3 mph 1021.3mb - -
5:06  -  mph 1021.3mb - -
5:00  -  3 mph 1021.5mb - -
4:54 2 3 mph 1021.4mb - -
4:48 1 2 mph 1021.2mb - -
4:42 2 3 mph 1021.4mb - -
4:36 3
mph
1021.3mb - -
4:30 3 5 mph 1021.4mb - -
4:24 3 6 mph 1021.5mb - -
4:18 3 5 mph 1021.2mb - -
4:12 3 5 mph 1021.4mb - -
4:06 2 3 mph 1021.6mb - -
4:00  -  mph 1021.3mb - -
3:54  -  2 mph 1021.4mb - -
3:48 2
mph
1021.5mb - -
3:42 2 3 mph 1021.2mb - -
3:36 1 2 mph 1021.1mb - -
3:30 2 3 mph 1021.1mb - -
3:24 2 3 mph 1020.9mb - -
3:18 1 2 mph 1021mb - -
3:12 2
mph
1021.2mb - -
3:06 2 3 mph 1021.3mb - -
3:00 2 3 mph 1021.2mb - -
2:54 1 3 mph 1021.3mb - -
2:48 3
mph
1021.4mb - -
2:42 2 3 mph 1021.4mb - -
2:36 2 3 mph 1021.6mb - -
2:30 2 3 mph 1021.8mb - -
2:24 2 3 mph 1021.7mb - -
2:18 3 5 mph 1021.5mb - -
2:12 3 5 mph 1021.4mb - -
2:06 2 3 mph 1021.4mb - -
2:00 2 5 mph 1021.4mb - -
1:54 3 5 mph 1021.2mb - -
1:48 3 5 mph 1021.1mb - -
1:42 3 5 mph 1021.1mb - -
1:36 3 5 mph 1021.1mb - -
1:30 2 3 mph 1020.9mb - -
1:24 2 5 mph 1020.8mb - -
1:18 2 3 mph 1020.9mb - -
1:12 2 5 mph 1020.9mb - -
1:06 3 5 mph 1020.8mb - -
1:00 2 3 mph 1020.5mb - -
12:54 1 3 mph 1020.5mb - -
12:48 2 3 mph 1020.5mb - -
12:42 2 3 mph 1020.5mb - -
12:36  -  mph 1020.5mb - -
12:30  -  mph 1020.3mb - -
12:24  -  mph 1020.4mb - -
12:18  -  mph 1020.5mb - -
12:12  -  mph 1020.6mb - -
12:06  -  mph 1020.7mb - -
12:00  -  mph 1020.8mb - -
ven. 12/26 11:54  -  mph 1021.3mb - -
11:48  -  mph 1021.4mb - -
11:42  -  mph 1021.4mb - -
11:36  -  mph 1021.4mb - -
11:30  -  mph 1021.4mb - -
11:24  -  mph 1021.5mb - -
11:18  -  mph - - -
11:12  -  mph 1021.7mb - -
11:06  -  mph 1021.7mb - -
11:00  -  mph 1021.6mb - -
10:54  -  mph 1021.8mb - -
10:48  -  mph 1021.8mb - -
10:42  -  mph 1021.9mb - -
10:36  -  1 mph 1022mb - -
10:30 1 2 mph 1021.9mb - -
10:24  -  mph 1021.9mb - -
10:18 1
mph
1021.9mb - -
10:12 2
mph
1021.9mb - -
10:06 2 3 mph 1021.9mb - -
10:00 2 3 mph 1022mb - -
9:54 2
mph
1021.9mb - -
9:48 2
mph
1021.9mb - -
9:42 2 3 mph 1022mb - -
9:36 3 5 mph 1022mb - -
9:30 3
mph
1022mb - -
9:24 3
mph
1021.9mb - -
9:18  -  mph 1021.9mb - -
9:12  -  mph 1021.8mb - -
9:06  -  2 mph 1021.9mb - -
9:00  -  mph 1021.9mb - -
8:54  -  mph 1021.9mb - -
8:48  -  1 mph - - -
8:42 1 2 mph - - -
8:36 2
mph
- - -
8:30 2
mph
1021.8mb - -
8:24 2 3 mph 1021.9mb - -
8:18  -  mph 1021.8mb - -
8:12  -  mph 1021.8mb - -
8:06  -  mph 1021.8mb - -
8:00  -  mph 1021.8mb - -
7:54  -  mph 1021.7mb - -
7:48  -  mph 1021.5mb - -
7:42  -  mph 1021.5mb - -
7:36  -  mph 1021.6mb - -
7:30  -  mph 1021.5mb - -
7:24  -  mph 1021.6mb - -
7:18  -  2 mph 1021.6mb - -
7:12 1 3 mph 1021.7mb - -
7:06  -  2 mph 1021.7mb - -
7:00  -  1 mph 1021.6mb - -
6:54  -  2 mph 1021.7mb - -
6:48  -  2 mph 1021.7mb - -
6:42  -  mph 1021.7mb - -
6:36  -  1 mph 1021.7mb - -
6:30 2 5 mph 1021.6mb - -
6:24 1 5 mph 1021.6mb - -
6:18 1 3 mph 1021.6mb - -
6:12 3 7 mph 1021.6mb - -
6:06 2 6 mph 1021.6mb - -
6:00 2 6 mph 1021.4mb - -
5:54 3 7 mph 1021.4mb - -
5:48 6 8 mph 1021.4mb - -
5:42 3 10 mph 1021.4mb - -
5:36 6 9 mph 1021.3mb - -
5:30 7 10 mph 1021.3mb - -
5:24 7 9 mph 1021.1mb - -
5:18 6 9 mph 1020.9mb - -
5:12 6 8 mph 1020.8mb - -
5:06 6 7 mph 1020.7mb - -
5:00 5 8 mph 1020.7mb - -
4:54 5 7 mph 1020.6mb - -
4:48 5 8 mph 1020.6mb - -
4:42 5 8 mph 1020.5mb - -
4:36 7 9 mph 1020.5mb - -
4:30 6 9 mph 1020.4mb - -
4:24 6 8 mph 1020.4mb - -
4:18 6 10 mph 1020.3mb - -
4:12 6 9 mph 1020.3mb - -
4:06 6 9 mph 1020.3mb - -
4:00 5 7 mph 1020.1mb - -
3:54 5 7 mph 1020.1mb - -
3:48  -  mph 1020mb - -
3:42  -  mph 1020mb - -
3:36  -  mph 1020mb - -
3:30 5 8 mph 1020.1mb - -
3:24 5 8 mph 1020mb - -
3:18 5 10 mph 1020.1mb - -
3:12 6 10 mph 1020.1mb - -
3:06 5 8 mph 1020.1mb - -
3:00 7 11 mph 1020.2mb - -
2:54 6 8 mph 1020.3mb - -
2:48 5 9 mph 1020.3mb - -
2:42 6 10 mph 1020.2mb - -
2:36 5 10 mph 1020.2mb - -
2:30 5 11 mph 1020.2mb - -
2:24 2 7 mph 1020.1mb - -
2:18 5 9 mph 1020.1mb - -
2:12 6 8 mph 1020mb - -
2:06 5 10 mph 1019.9mb - -
2:00 2 8 mph 1020mb - -
1:54 6 11 mph 1020.1mb - -
1:48 5 8 mph 1020.2mb - -
1:42 5 9 mph 1020.3mb - -
1:36 5 9 mph 1020.1mb - -
1:30 5 8 mph 1020.2mb - -
1:24 5 11 mph 1020.3mb - -
1:18 2 11 mph 1020.3mb - -
1:12 6 10 mph 1020.4mb - -
1:06 7 11 mph 1020.4mb - -
1:00 5 9 mph 1020.4mb - -
12:54 7 11 mph 1020.5mb - -
12:48 6 11 mph 1020.6mb - -
12:42 7 14 mph 1020.6mb - -
12:36 6 14 mph 1020.5mb - -
12:30 6 11 mph 1020.6mb - -
12:24 5 13 mph 1020.7mb - -
12:18 3 14 mph 1020.6mb - -
12:12 5 11 mph 1020.5mb - -
12:06 7 11 mph 1020.6mb - -
12:00 6 10 mph 1020.7mb - -
11:54 7 10 mph 1020.9mb - -
11:48 7 10 mph 1020.9mb - -
11:42 5 14 mph 1021mb - -
11:36 7 11 mph 1021.2mb - -
11:30 7 11 mph 1021.4mb - -
11:24 6 11 mph 1021.4mb - -
11:18 6 11 mph 1021.6mb - -
11:12 8 14 mph 1021.7mb - -
11:06 7 11 mph 1021.7mb - -
11:00 7 10 mph 1021.6mb - -
10:54 6 10 mph 1021.6mb - -
10:48 3 9 mph 1021.6mb - -
10:42 2 8 mph 1021.7mb - -
10:36 7 9 mph 1021.8mb - -
10:30 3 9 mph 1022.1mb - -
10:24 6 14 mph 1022.2mb - -
10:18 9 16 mph 1022.3mb - -
10:12 5 8 mph 1022.2mb - -
10:06 5 7 mph 1022.3mb - -
10:00 5 7 mph 1022.4mb - -
9:54 6 9 mph 1022.4mb - -
9:42 5 9 mph 1022.3mb - -
9:36 3 7 mph 1022.4mb - -
9:30 5 9 mph 1022.3mb - -
9:24 1 6 mph 1022.4mb - -
9:18 5 9 mph 1022.5mb - -
9:06 3 7 mph 1022.3mb - -
8:54  -  mph 1022mb - -
jeu. 12/25 10:42 2
mph
- - -
10:36  -  3 mph - - -
10:30 2 5 mph - - -
10:24 2 5 mph - - -
10:18 1 6 mph - - -
10:12 1 3 mph - - -
10:06 2 5 mph - - -
9:54 2 5 mph - - -
9:48 2 6 mph - - -
9:42 3 6 mph - - -
9:36 3 5 mph - - -
9:30 2 6 mph - - -
9:24 1 5 mph - - -
9:18 2 5 mph - - -
9:12 2 6 mph - - -
9:06 2 5 mph - - -
9:00 1 3 mph - - -
8:54 2 5 mph - - -
8:48 2 6 mph - - -
8:42 3 8 mph - - -
8:36 5 9 mph - - -
8:30 3 7 mph - - -
8:24 2 5 mph 1013.8mb - -
8:18 1 5 mph 1013.8mb - -
8:12 2 5 mph 1013.8mb - -
8:06 3 6 mph 1013.7mb - -
8:00 3 6 mph 1013.5mb - -
7:54 3 8 mph 1013.4mb - -
7:48 3 6 mph 1013.4mb - -
7:42 3 8 mph 1013.3mb - -
7:36 3 7 mph 1013.1mb - -
7:30 3 6 mph 1012.9mb - -
7:24 3 6 mph 1012.7mb - -
7:18 2 6 mph - - -
7:12 5 7 mph 1012.4mb - -
7:00 2 8 mph 1012.1mb - -
6:54 1 7 mph 1012mb - -
6:48 3 7 mph 1011.8mb - -
6:42 3 7 mph 1011.8mb - -
6:36 3 9 mph 1011.7mb - -
6:30 5 10 mph 1011.6mb - -
6:24 6 9 mph 1011.6mb - -
6:18 6 10 mph 1011.4mb - -
6:12 2 7 mph 1011.4mb - -
6:06 6 8 mph 1011.2mb - -
6:00 3 7 mph 1011.1mb - -
5:54 2 5 mph 1011mb - -
5:48 3 7 mph 1010.9mb - -
5:42 5 7 mph 1010.7mb - -
5:36 5 8 mph 1010.7mb - -
5:30 3 7 mph 1010.6mb - -
5:18 3 8 mph 1010.4mb - -
5:12 5 9 mph 1010.4mb - -
5:06 7 11 mph 1010.3mb - -
5:00 7 11 mph 1010mb - -
4:54 6 11 mph 1009.9mb - -
4:48 7 11 mph 1009.9mb - -
4:42 7 14 mph 1009.7mb - -
4:36 6 16 mph 1009.5mb - -
4:30 7 14 mph 1009.2mb - -
4:24 6 11 mph 1009.1mb - -
4:18 6 11 mph 1009mb - -
4:12 7 18 mph 1008.9mb - -
4:06 9 20 mph 1008.8mb - -
4:00 8 18 mph 1008.6mb - -
3:54 10 20 mph 1008.5mb - -
3:48 14 22 mph 1008.5mb - -
3:42 9 17 mph 1008.4mb - -
3:36 9 18 mph 1008mb - -
3:30 11 20 mph 1007.7mb - -
3:24 11 20 mph 1007.6mb - -
3:18 13 17 mph 1007.4mb - -
3:12 7 14 mph 1007.2mb - -
3:06 6 13 mph 1006.9mb - -
3:00 6 10 mph 1006.8mb - -
2:54 3 18 mph 1006.7mb - -
2:48 7 20 mph 1006.5mb - -
2:42 7 15 mph 1006.6mb - -
2:36 9 21 mph 1006.3mb - -
2:30 9 23 mph 1006mb - -
2:24 14 25 mph 1005.7mb - -
2:18 10 20 mph 1005.4mb - -
2:12 8 15 mph 1005.4mb - -
2:06 9 15 mph 1005.2mb - -
2:00 10 17 mph 1005.1mb - -
1:54 13 21 mph 1005mb - -
1:48 7 16 mph 1005.1mb - -
12:18 7 15 mph 1003.1mb - -
12:12 9 15 mph 1003mb - -
12:06 10 16 mph 1003mb - -
12:00 5 14 mph 1002.9mb - -
11:54 5 15 mph 1002.8mb - -
11:48 8 18 mph 1003mb - -
11:42 5 13 mph 1003.1mb - -
11:30 8 13 mph 1003mb - -
11:24 6 11 mph 1003.1mb - -